Indiana, PA

5:19 AM EDT on March 23, 2017 (GMT -0400)
Indiana County-Stewart

Weather History for KIDI - November, 2012

Change the Weather History Date:

Sunday, November 25, 2012

  Actual Average Record
Temperature  
Mean Temperature 30 °F -  
Max Temperature 35 °F 47 °F 66 °F (1979)
Min Temperature 24 °F 28 °F 8 °F (1950)
Degree Days  
Heating Degree Days 36    
Moisture  
Dew Point 23 °F    
Average Humidity 79    
Maximum Humidity 100    
Minimum Humidity 56    
Precipitation  
Precipitation 0.00 in - - ()
Sea Level Pressure  
Sea Level Pressure 29.94 in    
Wind  
Wind Speed 9 mph (West)    
Max Wind Speed 15 mph    
Max Gust Speed 21 mph    
Visibility 9 miles    
Events      
Averages and records for this station are not official NWS values.
T = Trace of Precipitation, MM = Missing Value Source: NWS Daily Summary

Daily Weather History Graph

Daily Weather History Graph

Search for Another Location

Airport or City:

Trip Planner

Search our weather history database for the weather conditions in past years. The results will help you decide how hot, cold, wet, or windy it might be!

Date:

Astronomy

Nov. 25, 2012 Rise Set
Actual Time 7:15 AM EST 4:51 PM EST
Civil Twilight 6:44 AM EST 5:21 PM EST
Nautical Twilight 6:11 AM EST 5:55 PM EST
Astronomical Twilight 5:38 AM EST 6:28 PM EST
Moon 3:08 PM EST (11/25) 4:26 AM EST (11/25)
Length of Visible Light 10h 36m
Length of Day
9h 36m
Waxing Gibbous, 93% of the Moon is Illuminated
Nov 25
Waxing Gibbous
Nov 28
Full
Dec 6
Last Quarter
Dec 13
New
Dec 20
First Quarter

Hourly Weather History & Observations

Time (EST) Temp. Windchill Dew Point Humidity Pressure Visibility Wind Dir Wind Speed Gust Speed Precip Events Conditions
12:15 AM 28.4 °F 19.1 °F 23.0 °F 80% 29.99 in 10.0 mi West 10.4 mph - N/A   Unknown
12:35 AM 28.4 °F 20.4 °F 23.0 °F 80% 30.00 in 10.0 mi WNW 8.1 mph - N/A   Unknown
12:55 AM 28.4 °F 19.7 °F 23.0 °F 80% 30.00 in 10.0 mi West 9.2 mph - N/A   Unknown
1:15 AM 28.4 °F 18.5 °F 23.0 °F 80% 30.00 in 10.0 mi West 11.5 mph - N/A   Unknown
1:35 AM 28.4 °F 18.0 °F 21.2 °F 74% 30.00 in 10.0 mi West 12.7 mph 17.3 mph N/A   Unknown
1:55 AM 28.4 °F 19.7 °F 21.2 °F 74% 30.00 in 10.0 mi West 9.2 mph - N/A   Unknown
2:15 AM 28.4 °F 19.7 °F 21.2 °F 74% 30.00 in 10.0 mi West 9.2 mph - N/A   Unknown
2:35 AM 28.4 °F 18.0 °F 21.2 °F 74% 30.00 in 10.0 mi West 12.7 mph - N/A   Unknown
2:55 AM 28.4 °F 19.1 °F 21.2 °F 74% 30.00 in 10.0 mi WNW 10.4 mph - N/A   Unknown
3:15 AM 28.4 °F 21.2 °F 21.2 °F 74% 29.99 in 10.0 mi West 6.9 mph - N/A   Unknown
3:35 AM 28.4 °F 20.4 °F 23.0 °F 80% 30.00 in 10.0 mi West 8.1 mph - N/A   Unknown
3:55 AM 28.4 °F 19.1 °F 23.0 °F 80% 30.00 in 10.0 mi West 10.4 mph - N/A   Unknown
4:15 AM 28.4 °F 19.7 °F 23.0 °F 80% 30.00 in 10.0 mi West 9.2 mph - N/A   Unknown
4:35 AM 28.4 °F 20.4 °F 23.0 °F 80% 29.99 in 10.0 mi West 8.1 mph - N/A   Unknown
4:55 AM 28.4 °F 18.0 °F 23.0 °F 80% 29.99 in 10.0 mi West 12.7 mph - N/A   Unknown
5:15 AM 28.4 °F 17.5 °F 21.2 °F 74% 29.99 in 10.0 mi West 13.8 mph 18.4 mph N/A   Unknown
5:35 AM 26.6 °F 16.2 °F 21.2 °F 80% 29.99 in 10.0 mi West 11.5 mph 20.7 mph N/A   Unknown
5:55 AM 26.6 °F 18.2 °F 21.2 °F 80% 29.99 in 10.0 mi West 8.1 mph - N/A   Unknown
6:15 AM 26.6 °F 15.2 °F 21.2 °F 80% 29.98 in 10.0 mi West 13.8 mph - N/A   Unknown
6:35 AM 26.6 °F 16.2 °F 21.2 °F 80% 29.99 in 10.0 mi West 11.5 mph 18.4 mph N/A   Unknown
6:55 AM 26.6 °F 16.2 °F 21.2 °F 80% 29.99 in 10.0 mi West 11.5 mph 17.3 mph N/A   Unknown
7:15 AM 26.6 °F 17.5 °F 21.2 °F 80% 29.98 in 10.0 mi West 9.2 mph - N/A   Unknown
7:35 AM 26.6 °F 16.8 °F 21.2 °F 80% 29.98 in 10.0 mi West 10.4 mph 17.3 mph N/A   Unknown
7:55 AM 26.6 °F 16.2 °F 21.2 °F 80% 29.98 in 10.0 mi West 11.5 mph - N/A   Unknown
8:15 AM 26.6 °F 16.8 °F 21.2 °F 80% 29.99 in 10.0 mi West 10.4 mph - N/A   Unknown
8:35 AM 26.6 °F 17.5 °F 23.0 °F 86% 29.98 in 3.0 mi WSW 9.2 mph - N/A   Unknown
8:55 AM 26.6 °F 17.5 °F 26.6 °F 100% 29.98 in 1.5 mi West 9.2 mph - N/A   Unknown
9:15 AM 26.6 °F 18.2 °F 26.6 °F 100% 29.98 in 1.2 mi West 8.1 mph - N/A   Unknown
9:35 AM 26.6 °F 17.5 °F 26.6 °F 100% 29.98 in 1.2 mi West 9.2 mph - N/A   Unknown
9:55 AM 26.6 °F 19.1 °F 26.6 °F 100% 29.97 in 2.5 mi WSW 6.9 mph - N/A   Unknown
10:15 AM 26.6 °F 18.2 °F 26.6 °F 100% 29.96 in 5.0 mi WSW 8.1 mph - N/A   Unknown
10:35 AM 26.6 °F 18.2 °F 26.6 °F 100% 29.96 in 10.0 mi West 8.1 mph - N/A   Unknown
10:55 AM 28.4 °F 19.1 °F 26.6 °F 93% 29.96 in 10.0 mi West 10.4 mph - N/A   Unknown
11:15 AM 28.4 °F 19.7 °F 26.6 °F 93% 29.94 in 10.0 mi WSW 9.2 mph - N/A   Unknown
11:35 AM 28.4 °F 17.5 °F 26.6 °F 93% 29.94 in 10.0 mi WSW 13.8 mph 18.4 mph N/A   Unknown
11:55 AM 30.2 °F 20.8 °F 24.8 °F 80% 29.92 in 10.0 mi WSW 11.5 mph 16.1 mph N/A   Unknown
12:15 PM 30.2 °F 21.3 °F 24.8 °F 80% 29.90 in 10.0 mi WSW 10.4 mph - N/A   Unknown
12:35 PM 30.2 °F 20.8 °F 24.8 °F 80% 29.89 in 10.0 mi WSW 11.5 mph 20.7 mph N/A   Unknown
12:55 PM 32.0 °F 23.6 °F 24.8 °F 75% 29.89 in 10.0 mi WSW 10.4 mph 18.4 mph N/A   Unknown
1:15 PM 32.0 °F 23.6 °F 24.8 °F 75% 29.87 in 10.0 mi West 10.4 mph - N/A   Unknown
1:35 PM 33.8 °F 27.0 °F 24.8 °F 70% 29.87 in 10.0 mi WSW 8.1 mph - N/A   Unknown
1:55 PM 33.8 °F 25.8 °F 24.8 °F 70% 29.86 in 10.0 mi WSW 10.4 mph - N/A   Unknown
2:15 PM 35.6 °F 28.6 °F 24.8 °F 65% 29.85 in 10.0 mi WSW 9.2 mph - N/A   Unknown
2:35 PM 35.6 °F 28.0 °F 23.0 °F 60% 29.85 in 10.0 mi WSW 10.4 mph 18.4 mph N/A   Unknown
2:55 PM 35.6 °F 26.6 °F 23.0 °F 60% 29.84 in 10.0 mi WSW 13.8 mph 19.6 mph N/A   Unknown
3:15 PM 35.6 °F 28.0 °F 23.0 °F 60% 29.84 in 10.0 mi West 10.4 mph 17.3 mph N/A   Unknown
3:35 PM 35.6 °F 26.2 °F 21.2 °F 56% 29.84 in 10.0 mi WSW 15.0 mph 18.4 mph N/A   Unknown
3:55 PM 35.6 °F 27.1 °F 21.2 °F 56% 29.85 in 10.0 mi West 12.7 mph 17.3 mph N/A   Unknown
4:15 PM 35.6 °F 28.6 °F 21.2 °F 56% 29.86 in 10.0 mi West 9.2 mph - N/A   Unknown
4:35 PM 35.6 °F 28.6 °F 21.2 °F 56% 29.86 in 10.0 mi West 9.2 mph - N/A   Unknown
4:55 PM 33.8 °F 28.6 °F 21.2 °F 60% 29.87 in 10.0 mi West 5.8 mph - N/A   Unknown
5:15 PM 32.0 °F - 23.0 °F 69% 29.87 in 10.0 mi Calm Calm - N/A   Unknown
5:35 PM 32.0 °F - 21.2 °F 64% 29.88 in 10.0 mi Calm Calm - N/A   Unknown
5:55 PM 30.2 °F - 21.2 °F 69% 29.89 in 10.0 mi Calm Calm - N/A   Unknown
6:15 PM 30.2 °F - 21.2 °F 69% 29.89 in 10.0 mi Calm Calm - N/A   Unknown
6:35 PM 30.2 °F - 23.0 °F 75% 29.90 in 10.0 mi Calm Calm - N/A   Unknown
6:55 PM 28.4 °F - 23.0 °F 80% 29.91 in 10.0 mi Calm Calm - N/A   Unknown
7:15 PM 28.4 °F - 23.0 °F 80% 29.91 in 10.0 mi Calm Calm - N/A   Unknown
7:35 PM 28.4 °F - 23.0 °F 80% 29.92 in 10.0 mi Calm Calm - N/A   Unknown
7:55 PM 26.6 °F - 23.0 °F 86% 29.91 in 10.0 mi Calm Calm - N/A   Unknown
8:15 PM 28.4 °F - 21.2 °F 74% 29.92 in 10.0 mi Calm Calm - N/A   Unknown
8:35 PM 26.6 °F - 23.0 °F 86% 29.92 in 10.0 mi Calm Calm - N/A   Unknown
8:55 PM 26.6 °F - 23.0 °F 86% 29.92 in 10.0 mi Calm Calm - N/A   Unknown
9:15 PM 26.6 °F - 21.2 °F 80% 29.92 in 10.0 mi Calm Calm - N/A   Unknown
9:35 PM 24.8 °F - 23.0 °F 93% 29.93 in 10.0 mi Calm Calm - N/A   Unknown
9:55 PM 26.6 °F - 21.2 °F 80% 29.94 in 10.0 mi Calm Calm - N/A   Unknown
10:15 PM 26.6 °F - 23.0 °F 86% 29.93 in 10.0 mi Calm Calm - N/A   Unknown
10:35 PM 28.4 °F - 24.8 °F 86% 29.94 in 10.0 mi Calm Calm - N/A   Unknown
10:55 PM 28.4 °F - 24.8 °F 86% 29.94 in 10.0 mi Calm Calm - N/A   Unknown
11:15 PM 28.4 °F 24.6 °F 24.8 °F 86% 29.95 in 10.0 mi WSW 3.5 mph - N/A   Unknown
11:35 PM 30.2 °F 25.4 °F 24.8 °F 80% 29.95 in 10.0 mi WSW 4.6 mph - N/A   Unknown
11:55 PM 30.2 °F 26.7 °F 24.8 °F 80% 29.96 in 10.0 mi WSW 3.5 mph - N/A   Unknown